This demonstration page uses our WeatherBlox Daily Observations layout. Learn more.

Left ArrowRight Arrow

53.62937, 11.41316

Hourly Observations for January 1, 2019

Temp ( °F °C ) Dew Point ( °F °C ) Humidity (%) Winds ( mph kmh ) Pressure ( in mb ) Visibility ( mi km ) Precip ( " mm )
12:20 am 00:20 Mostly Cloudy with Drizzle 46 8 43 6 87 87 WSW 15 24 30.18 1022 30 48 N/A
1:06 am 01:06 Mostly Cloudy 46 8 41 5 82 82 W 17 28 30.15 1021 6 9 N/A
1:20 am 01:20 Mostly Cloudy with Drizzle 46 8 41 5 82 82 W 21 33 30.15 1021 30 48 N/A
2:20 am 02:20 Mostly Cloudy 46 8 41 5 82 82 WSW 14 22 30.12 1020 30 48 N/A
3:20 am 03:20 Mostly Cloudy 46 8 39 4 76 76 W 21 33 30.09 1019 30 48 N/A
4:20 am 04:20 Mostly Cloudy 46 8 41 5 82 82 WSW 17 28 30.03 1017 30 48 N/A
4:50 am 04:50 Mostly Cloudy 46 8 41 5 82 82 W 18 30 30.00 1016 30 48 N/A
5:20 am 05:20 Mostly Cloudy with Drizzle 46 8 41 5 82 82 W 21 33 29.97 1015 5 8 N/A
6:06 am 06:06 Mostly Cloudy with Drizzle 45 7 43 6 93 93 WSW 17 28 29.97 1015 3 4 N/A
6:20 am 06:20 Mostly Cloudy with Drizzle 45 7 43 6 93 93 WSW 17 28 29.94 1014 2 4 N/A
7:20 am 07:20 Mostly Cloudy with Drizzle 45 7 43 6 93 93 W 18 30 29.91 1013 2 3 N/A
8:20 am 08:20 Mostly Cloudy with Drizzle 45 7 45 7 100 100 WNW 23 37 29.91 1013 2 4 N/A
8:24 am 08:24 Mostly Cloudy with Light Rain 46 8 43 6 87 87 WNW 28 44 29.91 1013 3 5 N/A
8:50 am 08:50 Partly Cloudy 45 7 39 4 81 81 WNW 25 41 29.91 1013 30 48 N/A
9:20 am 09:20 Mostly Sunny 45 7 37 3 76 76 WNW 26 43 29.91 1013 30 48 N/A
10:20 am 10:20 Mostly Cloudy 45 7 37 3 76 76 W 24 39 29.91 1013 30 48 N/A
11:20 am 11:20 Partly Cloudy 45 7 37 3 76 76 WNW 30 48 29.91 1013 30 48 N/A
12:20 pm 12:20 Mostly Cloudy with Light Rain 45 7 36 2 71 71 W 25 41 29.88 1012 30 48 N/A
12:50 pm 12:50 Mostly Cloudy 45 7 34 1 66 66 WNW 31 50 29.85 1011 30 48 N/A
1:20 pm 13:20 Mostly Sunny 45 7 34 1 66 66 WNW 29 46 29.85 1011 30 48 N/A
2:20 pm 14:20 Mostly Cloudy 45 7 32 0 61 61 WNW 25 41 29.85 1011 30 48 N/A
2:39 pm 14:39 Partly Cloudy 45 7 32 0 61 61 WNW 29 46 29.83 1010 30 48 N/A
3:11 pm 15:11 Windy with Rain Showers Likely 43 6 30 -1 61 61 WNW 33 54 29.83 1010 30 48 N/A
3:20 pm 15:20 Mostly Cloudy 43 6 32 0 66 66 WNW 36 57 29.83 1010 30 48 N/A
4:20 pm 16:20 Mostly Cloudy 41 5 30 -1 66 66 WNW 29 46 29.83 1010 30 48 N/A
4:34 pm 16:34 Mostly Cloudy 43 6 30 -1 61 61 WNW 31 50 29.80 1009 30 48 N/A
5:20 pm 17:20 Mostly Cloudy 41 5 30 -1 66 66 WNW 29 46 29.80 1009 30 48 N/A
6:20 pm 18:20 Mostly Cloudy 41 5 32 0 70 70 WNW 31 50 29.80 1009 30 48 N/A
7:20 pm 19:20 Mostly Cloudy 41 5 30 -1 66 66 WNW 32 52 29.83 1010 30 48 N/A
8:20 pm 20:20 Mostly Cloudy 41 5 28 -2 61 61 WNW 29 46 29.83 1010 30 48 N/A
8:34 pm 20:34 Mostly Cloudy with Light Rain 41 5 28 -2 61 61 WNW 28 44 29.85 1011 30 48 N/A
9:20 pm 21:20 Mostly Cloudy 39 4 30 -1 70 70 WNW 24 39 29.85 1011 30 48 N/A
10:20 pm 22:20 Mostly Cloudy 39 4 30 -1 70 70 WNW 25 41 29.88 1012 30 48 N/A
11:20 pm 23:20 Clear 39 4 28 -2 65 65 NW 23 37 29.91 1013 30 48 N/A

Powered by AerisWeather